Regional Weather Roundup
Issued by NWS

Home | Current Version | Previous Version | Graphics & Text | Print | Product List | Glossary On
Versions: 1 2 3 4 5 6 7 8 9 10 11 12 13 14 15 16 17 18 19 20 21 22 23 24 25 26 27 28 29 30 31 32 33 34 35 36 37 38 39 40 41 42 43 44 45 46 47 48 49 50
000
ASUS43 KLMK 270310
RWRKY
KENTUCKY REGIONAL WEATHER ROUNDUP
NATIONAL WEATHER SERVICE LOUISVILLE KY
1000 PM EST MON JAN 26 2015

NOTE "FAIR" INDICATES FEW OR NO CLOUDS BELOW 12,000 FEET
WITH NO SIGNIFICANT WEATHER AND/OR OBSTRUCTIONS TO VISIBILITY.

KYZ001>023-026-027-061>063-070>075-270400-
WESTERN AND SOUTH CENTRAL KENTUCKY

CITY           SKY/WX    TMP DP  RH WIND       PRES   REMARKS
PADUCAH        CLOUDY    35  30  82 CALM      29.93F
HENDERSON      CLOUDY    30  27  86 SE6       29.96S WCI  24
OWENSBORO      CLOUDY    29  28  96 S5        29.97F WCI  24
HOPKINSVILLE   CLOUDY    35  29  79 E5        29.95F WCI  31
BOWLING GREEN  CLOUDY    31  28  89 CALM      29.98S FOG
GLASGOW        CLOUDY    29  29 100 CALM      29.96F FOG
$$

KYZ024-025-028>034-038-045-046-053-270400-
NORTH CENTRAL KENTUCKY

CITY           SKY/WX    TMP DP  RH WIND       PRES   REMARKS
LOUISVILLE/SDF CLOUDY    31  26  82 W8        29.96R WCI  23
LOUISVILLE/LOU CLOUDY    31  26  82 W6        29.96S WCI  25
FORT KNOX      CLOUDY    28  25  86 SW5       29.94S WCI  23
$$

KYZ035>037-039>044-047>052-055>060-089>105-270400-
NORTHEAST KENTUCKY

CITY           SKY/WX    TMP DP  RH WIND       PRES   REMARKS
LEXINGTON      CLOUDY    28  22  78 CALM      29.94S
COVINGTON      CLOUDY    25  17  72 E7        29.93S WCI  17
FRANKFORT      CLOUDY    29  22  75 S5        29.93F WCI  24
$$

KYZ054-064>069-076>088-106>120-270400-
SOUTHEAST KENTUCKY

CITY           SKY/WX    TMP DP  RH WIND       PRES   REMARKS
JACKSON        CLOUDY    26  20  77 CALM      29.92S
LONDON         CLOUDY    30  22  72 W3        29.93S
SOMERSET       LGT SNOW  28  28 100 W5        29.96S WCI  23
MIDDLESBORO    CLOUDY    30  24  78 CALM      29.94S
MONTICELLO     LGT SNOW  30  29  96 CALM      29.98S FOG
$$



USA.gov is the U.S. government's official web portal to all federal, state and local government web resources and services.